Home   Weather   Le Havre   Past weeks

Flag for France Past Weather in Le Havre, Upper Normandy, France — Yesterday and Last 2 Weeks

Now
59 °F

Passing clouds.


Feels Like: 56 °F
Forecast: 56 / 65 °F
Wind: 16 mph from Southwest

Location: La Heve

Current Time: Sep 29, 2016 at 7:02:22 AM

Latest Report: Sep 29, 2016 at 6:30 AM


Visibility: N/A

Pressure: 30.15 "Hg

Humidity: 82%

Dew Point: 54 °F

Location of Le HavreLocation

Past Weather in Le Havre — Graph

°F

Le Havre Temperature Yesterday

Maximum temperature yesterday: 68 °F (at 4:00 PM)
Minimum temperature yesterday: 59 °F (at 5:30 AM)
Average temperature yesterday: 62 °F

High & Low Weather Summary for the Past Weeks

 TemperatureHumidityPressure
High75 °F (Sep 14, 2:00 PM)100% (Sep 15, 8:00 AM)30.39 "Hg (Sep 15, 8:00 AM)
Low52 °F (Sep 21, 6:30 AM)41% (Sep 24, 3:30 PM)29.74 "Hg (Sep 14, 6:00 AM)
Average62 °F80%30.11 "Hg
* Reported Sep 14 6:00 AM — Sep 29 6:00 AM, Le Havre, Weather by CustomWeather, © 2016

Note: Actual official high and low records may vary slightly from our data, if they occured in-between our weather recording intervals... More about our weather records

Advertising

Le Havre Weather History for the Previous 24 Hours

Scroll right to see more
 ConditionsComfort  
Time TempWeatherWind HumidityBarometerVisibility
6:00 AM
Thu, Sep 29
59 °FPassing clouds.15 mph82%30.15 "HgN/A
5:30 AM59 °FOvercast.14 mph88%30.15 "HgN/A
5:00 AM59 °FOvercast.16 mph88%30.18 "HgN/A
4:30 AM61 °FOvercast.15 mph88%30.18 "HgN/A
4:00 AM61 °FOvercast.14 mph88%30.18 "HgN/A
3:30 AM61 °FLow clouds.14 mph94%30.21 "HgN/A
3:00 AM61 °FPassing clouds.10 mph94%30.21 "HgN/A
2:30 AM61 °FPassing clouds.10 mph88%30.21 "HgN/A
2:00 AM61 °FClear.10 mph88%30.24 "Hg10 mi
1:30 AM61 °FClear.9 mph88%30.24 "Hg10 mi
1:00 AM61 °FClear.7 mph88%30.24 "Hg10 mi
12:30 AM61 °FPassing clouds.3 mph94%30.24 "HgN/A
12:00 AM61 °FPassing clouds.3 mph94%30.24 "HgN/A
11:30 PM
Wed, Sep 28
61 °FClear.3 mph94%30.27 "Hg10 mi
11:00 PM59 °FClear.3 mph94%30.27 "Hg10 mi
10:30 PM59 °FPassing clouds.5 mph94%30.27 "HgN/A
10:00 PM59 °FClear.5 mph94%30.30 "Hg10 mi
9:30 PM61 °FClear.2 mph88%30.30 "Hg10 mi
9:00 PM61 °FClear.2 mph88%30.30 "Hg10 mi
8:30 PM61 °FClear.6 mph83%30.30 "Hg10 mi
8:00 PM61 °FClear.7 mph88%30.33 "Hg10 mi
7:30 PM63 °FSunny.8 mph83%30.33 "Hg10 mi
7:00 PM64 °FSunny.7 mph83%30.33 "Hg10 mi
6:30 PM64 °FSunny.8 mph83%30.33 "Hg10 mi
6:00 PM66 °FSunny.6 mph78%30.33 "Hg10 mi
5:30 PM66 °FSunny.6 mph73%30.33 "Hg10 mi
5:00 PM66 °FPassing clouds.7 mph78%30.33 "HgN/A
4:30 PM68 °FPassing clouds.6 mph69%30.33 "HgN/A
4:00 PM68 °FPassing clouds.6 mph73%30.33 "HgN/A
3:30 PM66 °FSunny.8 mph78%30.33 "Hg10 mi
3:00 PM66 °FPassing clouds.7 mph78%30.36 "HgN/A
2:30 PM64 °FPassing clouds.9 mph78%30.36 "HgN/A
2:00 PM64 °FPassing clouds.10 mph78%30.36 "HgN/A
1:30 PM64 °FPartly sunny.12 mph78%30.36 "HgN/A
1:00 PM63 °FPartly sunny.13 mph83%30.36 "HgN/A
12:30 PM63 °FPartly sunny.14 mph77%30.39 "HgN/A
12:00 PM61 °FOvercast.14 mph83%30.39 "HgN/A
11:30 AM61 °FOvercast.15 mph83%30.39 "HgN/A
11:00 AM61 °FPartly sunny.14 mph83%30.39 "HgN/A
10:30 AM61 °FPartly sunny.14 mph83%30.39 "HgN/A
10:00 AM61 °FOvercast.13 mph77%30.39 "HgN/A
9:30 AM59 °FOvercast.12 mph82%30.36 "HgN/A
9:00 AM59 °FOvercast.10 mph82%30.36 "HgN/A
8:30 AM59 °FOvercast.12 mph82%30.36 "HgN/A
8:00 AM59 °FOvercast.14 mph88%30.36 "HgN/A
7:30 AM59 °FOvercast.14 mph88%30.36 "HgN/A
7:00 AM59 °FOvercast.15 mph88%30.36 "HgN/A
Weather by CustomWeather, © 2016

See weather overviewHow to use our weather pages